CW8198 Weather Reports


time (UTC)temp
C
wind
direction
speed
KPH
gust
KPH
rain 1hr
cm
rain 24hr
cm
rain mn
cm
humidity
%
barometer
mb
20260508180748 23 221 8.0 16.1 0.00 0.00 0.00 33 1007.6
20260508180248 23 34 8.0 16.1 0.00 0.00 0.00 32 1007.6
20260508175748 23 194 6.4 12.9 0.00 0.00 0.00 32 1007.7
20260508174748 23 182 6.4 16.1 0.00 0.00 0.00 33 1007.7
20260508174247 23 269 9.7 16.1 0.00 0.00 0.00 33 1007.8
20260508173748 23 175 6.4 14.5 0.00 0.00 0.00 34 1007.8
20260508173247 23 221 8.0 16.1 0.00 0.00 0.00 32 1007.9
20260508172247 22 51 6.4 16.1 0.00 0.00 0.00 32 1008.0
20260508171746 22 211 6.4 16.1 0.00 0.00 0.00 36 1008.1
20260508171245 22 93 6.4 16.1 0.00 0.00 0.00 35 1008.1
20260508170745 22 203 6.4 16.1 0.00 0.00 0.00 37 1008.1
20260508165745 22 173 4.8 9.7 0.00 0.00 0.00 36 1008.3
20260508165245 21 140 3.2 8.0 0.00 0.00 0.00 34 1008.4
20260508164744 21 221 3.2 9.7 0.00 0.00 0.00 32 1008.3
20260508164244 21 214 4.8 9.7 0.00 0.00 0.00 31 1008.3
20260508163746 21 229 3.2 8.0 0.00 0.00 0.00 32 1008.4
20260508163243 21 208 3.2 8.0 0.00 0.00 0.00 32 1008.4
20260508162743 21 110 1.6 6.4 0.00 0.00 0.00 34 1008.4
20260508162243 21 200 3.2 6.4 0.00 0.00 0.00 34 1008.4
20260508161743 21 280 1.6 6.4 0.00 0.00 0.00 34 1008.6
20260508161242 21 24 3.2 8.0 0.00 0.00 0.00 32 1008.4
20260508160742 21 139 3.2 8.0 0.00 0.00 0.00 33 1008.5
20260508160241 21 171 3.2 8.0 0.00 0.00 0.00 33 1008.5
20260508155739 21 150 3.2 11.3 0.00 0.00 0.00 34 1008.7
20260508155239 21 93 4.8 11.3 0.00 0.00 0.00 39 1008.4
20260508154234 21 200 4.8 8.0 0.00 0.00 0.00 36 1008.5
20260508153233 21 137 1.6 4.8 0.00 0.00 0.00 40 1008.6
20260508152733 20 249 1.6 6.4 0.00 0.00 0.00 41 1008.6
20260508152233 20 219 1.6 8.0 0.00 0.00 0.00 38 1008.7
20260508151732 20 128 3.2 8.0 0.00 0.00 0.00 41 1008.7
20260508151231 19 243 3.2 8.0 0.00 0.00 0.00 40 1008.7
20260508150731 19 167 4.8 8.0 0.00 0.00 0.00 41 1008.8
20260508150231 18 137 3.2 8.0 0.00 0.00 0.00 46 1008.9
20260508145731 18 163 3.2 8.0 0.00 0.00 0.00 48 1009.0
20260508145229 18 198 3.2 9.7 0.00 0.00 0.00 47 1008.9
20260508144731 17 132 4.8 9.7 0.00 0.00 0.00 46 1008.9
20260508144228 17 167 4.8 9.7 0.00 0.00 0.00 48 1008.9
20260508143727 17 185 4.8 9.7 0.00 0.00 0.00 51 1009.0
20260508143226 16 242 4.8 9.7 0.00 0.00 0.00 50 1009.2
20260508142727 16 208 4.8 9.7 0.00 0.00 0.00 51 1009.2
20260508142227 16 217 4.8 9.7 0.00 0.00 0.00 51 1009.2
20260508141726 16 212 3.2 4.8 0.00 0.00 0.00 53 1009.2
20260508141225 15 196 1.6 3.2 0.00 0.00 0.00 55 1009.2
20260508140724 15 265 1.6 4.8 0.00 0.00 0.00 56 1009.3
20260508140226 14 165 1.6 4.8 0.00 0.00 0.00 58 1009.2
20260508135724 13 238 1.6 3.2 0.00 0.00 0.00 61 1009.3
20260508135225 13 111 1.6 3.2 0.00 0.00 0.00 63 1009.3
20260508134223 12 137 0.0 3.2 0.00 0.00 0.00 67 1009.4
20260508133722 12 291 0.0 3.2 0.00 0.00 0.00 67 1009.3
20260508133222 11 137 1.6 3.2 0.00 0.00 0.00 69 1009.4
20260508132722 11 265 0.0 3.2 0.00 0.00 0.00 70 1009.4
20260508132217 11 291 1.6 3.2 0.00 0.00 0.00 69 1009.4
20260508131717 11 153 1.6 3.2 0.00 0.00 0.00 69 1009.2
20260508130716 11 119 1.6 3.2 0.00 0.00 0.00 69 1009.0
20260508130216 10 193 1.6 3.2 0.00 0.00 0.00 71 1009.0
20260508125216 10 178 1.6 3.2 0.00 0.00 0.00 72 1008.9
20260508124715 10 221 1.6 3.2 0.00 0.00 0.00 71 1008.8
20260508124209 10 9 1.6 3.2 0.00 0.00 0.00 72 1008.7
20260508123709 10 9 0.0 3.2 0.00 0.00 0.00 73 1008.8
20260508123209 10 232 0.0 3.2 0.00 0.00 0.00 74 1008.8
20260508122709 10 51 0.0 1.6 0.00 0.00 0.00 73 1008.7
20260508122210 10 162 0.0 3.2 0.00 0.00 0.00 72 1008.7
20260508121707 10 221 1.6 3.2 0.00 0.00 0.00 72 1008.8
20260508121207 10 111 1.6 3.2 0.00 0.00 0.00 71 1008.7
20260508120707 10 265 0.0 3.2 0.00 0.00 0.00 71 1008.7
20260508120206 9 51 1.6 3.2 0.00 0.00 0.00 72 1008.8
20260508114706 9 119 1.6 3.2 0.00 0.00 0.00 73 1009.0
20260508114206 9 57 1.6 6.4 0.00 0.00 0.00 73 1008.9
20260508113206 9 121 1.6 4.8 0.00 0.00 0.00 72 1008.8
20260508112704 9 141 1.6 3.2 0.00 0.00 0.00 72 1008.8
20260508112204 9 265 1.6 3.2 0.00 0.00 0.00 71 1008.8
20260508111703 9 309 0.0 3.2 0.00 0.00 0.00 71 1008.9
20260508110702 9 178 0.0 4.8 0.00 0.00 0.00 69 1009.0
20260508110157 9 334 1.6 3.2 0.00 0.00 0.00 69 1009.0
20260508105658 9 9 1.6 1.6 0.00 0.00 0.00 68 1009.0
20260508105157 9 51 0.0 1.6 0.00 0.00 0.00 67 1008.9
20260508104657 9 51 0.0 3.2 0.00 0.00 0.00 68 1008.9
20260508103150 9 292 1.6 3.2 0.00 0.00 0.00 65 1009.0
20260508102650 9 178 0.0 3.2 0.00 0.00 0.00 67 1009.1
20260508102150 9 26 1.6 4.8 0.00 0.00 0.00 68 1009.0
20260508101649 9 17 0.0 4.8 0.00 0.00 0.00 69 1009.0
20260508101149 9 9 3.2 4.8 0.00 0.00 0.00 70 1009.2
20260508100649 9 110 3.2 4.8 0.00 0.00 0.00 69 1009.0
20260508100148 9 119 1.6 3.2 0.00 0.00 0.00 69 1009.1
20260508095649 9 178 0.0 3.2 0.00 0.00 0.00 67 1009.3
20260508095150 9 196 1.6 3.2 0.00 0.00 0.00 65 1009.4
20260508094648 9 217 0.0 4.8 0.00 0.00 0.00 63 1009.5
20260508094147 9 83 1.6 4.8 0.00 0.00 0.00 64 1009.5
20260508093647 10 22 1.6 4.8 0.00 0.00 0.00 66 1009.6
20260508093147 10 221 1.6 4.8 0.00 0.00 0.00 65 1009.6
20260508092647 10 17 3.2 4.8 0.00 0.00 0.00 66 1009.3
20260508091646 10 93 1.6 6.4 0.00 0.00 0.00 65 1009.2
20260508090646 10 28 3.2 4.8 0.00 0.00 0.00 63 1009.6
20260508090146 11 9 1.6 4.8 0.00 0.00 0.00 64 1009.7
20260508085646 11 153 1.6 4.8 0.00 0.00 0.00 62 1009.7
20260508085140 11 9 1.6 4.8 0.00 0.00 0.00 63 1009.7
20260508084639 11 221 1.6 8.0 0.00 0.00 0.00 60 1009.7
20260508084138 10 24 1.6 8.0 0.00 0.00 0.00 65 1009.7
20260508083638 11 216 3.2 8.0 0.00 0.00 0.00 64 1009.8
20260508082637 11 230 4.8 8.0 0.00 0.00 0.00 65 1009.6
20260508081137 11 15 1.6 3.2 0.00 0.00 0.00 66 1009.3
20260508080637 11 126 3.2 3.2 0.00 0.00 0.00 65 1009.6
20260508080138 10 247 0.0 3.2 0.00 0.00 0.00 64 1009.6
20260508075630 10 64 1.6 4.8 0.00 0.00 0.00 66 1009.7
20260508075131 10 31 1.6 6.4 0.00 0.00 0.00 68 1009.9
20260508074631 10 334 3.2 6.4 0.00 0.00 0.00 69 1009.9
20260508073629 10 255 3.2 4.8 0.00 0.00 0.00 70 1009.7
20260508072629 10 186 3.2 6.4 0.00 0.00 0.00 70 1009.2
20260508072129 10 209 1.6 6.4 0.00 0.00 0.00 69 1009.3
20260508071628 10 209 3.2 6.4 0.00 0.00 0.00 66 1009.4
20260508071128 10 26 1.6 3.2 0.00 0.00 0.00 67 1009.4
20260508070629 10 9 1.6 3.2 0.00 0.00 0.00 69 1009.5
20260508070124 10 9 1.6 3.2 0.00 0.00 0.00 71 1009.6
20260508065623 9 221 0.0 3.2 0.00 0.00 0.00 72 1009.6
20260508065123 9 137 1.6 3.2 0.00 0.00 0.00 71 1009.7
20260508064622 9 319 0.0 3.2 0.00 0.00 0.00 72 1009.8
20260508064122 9 34 1.6 3.2 0.00 0.00 0.00 73 1009.8
20260508063622 8 111 1.6 3.2 0.00 0.00 0.00 74 1009.8
20260508063121 8 93 0.0 3.2 0.00 0.00 0.00 73 1009.9
20260508062621 8 334 1.6 3.2 0.00 0.00 0.00 73 1009.9
20260508061620 8 178 0.0 4.8 0.00 0.00 0.00 74 1009.8
20260508061120 8 334 1.6 4.8 0.00 0.00 0.00 74 1009.7
20260508060620 8 336 1.6 3.2 0.00 0.00 0.00 74 1009.4
20260508060119 8 205 1.6 3.2 0.00 0.00 0.00 74 1009.5
20260508055118 8 334 0.0 1.6 0.00 0.00 0.00 75 1009.3
20260508054620 8 238 0.0 3.2 0.00 0.00 0.00 76 1009.5
20260508054113 8 265 1.6 3.2 0.00 0.00 0.00 76 1009.6
20260508053612 8 212 0.0 3.2 0.00 0.00 0.00 76 1009.5
20260508052602 8 321 1.6 4.8 0.00 0.00 0.00 76 1009.5
20260508052102 8 22 1.6 3.2 0.00 0.00 0.00 75 1009.5
20260508051602 8 9 1.6 3.2 0.00 0.00 0.00 75 1009.5
20260508051101 8 330 1.6 3.2 0.00 0.00 0.00 75 1009.6
20260508045601 8 221 1.6 3.2 0.00 0.00 0.00 73 1009.6
20260508045101 8 115 1.6 3.2 0.00 0.00 0.00 72 1009.7
20260508044601 8 282 0.0 1.6 0.00 0.00 0.00 70 1009.7
20260508044100 8 51 0.0 1.6 0.00 0.00 0.00 70 1009.8
20260508043050 8 291 1.6 3.2 0.00 0.00 0.00 68 1009.7
20260508042553 8 205 0.0 3.2 0.00 0.00 0.00 67 1009.7
20260508042050 9 325 1.6 3.2 0.00 0.00 0.00 66 1009.6
20260508041550 9 309 1.6 3.2 0.00 0.00 0.00 65 1009.8
20260508041049 9 153 1.6 3.2 0.00 0.00 0.00 64 1009.7
20260508040550 9 119 1.6 3.2 0.00 0.00 0.00 65 1009.8
20260508040049 9 9 1.6 3.2 0.00 0.00 0.00 64 1009.8
20260508035549 10 279 1.6 3.2 0.00 0.00 0.00 64 1009.8
20260508035049 10 309 1.6 3.2 0.00 0.00 0.00 63 1009.7
20260508034548 10 9 0.0 3.2 0.00 0.00 0.00 62 1009.5
20260508034049 10 51 0.0 3.2 0.00 0.00 0.00 62 1009.6
20260508033548 10 108 3.2 3.2 0.00 0.00 0.00 62 1009.6
20260508032547 10 149 1.6 3.2 0.00 0.00 0.00 59 1009.6
20260508032048 10 158 1.6 3.2 0.00 0.00 0.00 58 1009.6
20260508031546 11 9 0.0 1.6 0.00 0.00 0.00 57 1009.6
20260508031041 11 325 0.0 1.6 0.00 0.00 0.00 55 1009.7
20260508030537 11 309 0.0 1.6 0.00 0.00 0.00 53 1009.6
20260508030036 11 309 0.0 1.6 0.00 0.00 0.00 51 1009.6
20260508025035 12 291 0.0 1.6 0.00 0.00 0.00 49 1009.5
20260508024535 12 309 0.0 1.6 0.00 0.00 0.00 47 1009.4
20260508024035 13 9 0.0 1.6 0.00 0.00 0.00 45 1009.5
20260508023530 13 238 0.0 1.6 0.00 0.00 0.00 44 1009.3
20260508022529 14 221 0.0 3.2 0.00 0.00 0.00 42 1009.3
20260508022029 15 119 0.0 3.2 0.00 0.00 0.00 41 1009.2
20260508021029 16 51 0.0 3.2 0.00 0.00 0.00 38 1009.1
20260508020527 16 221 1.6 4.8 0.00 0.00 0.00 36 1008.9
20260508020022 17 265 1.6 4.8 0.00 0.00 0.00 33 1008.9
20260508015522 17 47 1.6 4.8 0.00 0.00 0.00 31 1008.7
20260508015022 17 44 3.2 6.4 0.00 0.00 0.00 31 1008.8
20260508014522 17 22 3.2 6.4 0.00 0.00 0.00 30 1008.8
20260508013521 16 9 3.2 6.4 0.00 0.00 0.00 31 1008.8
20260508012521 17 34 3.2 6.4 0.00 0.00 0.00 33 1008.8
20260508011520 17 338 4.8 6.4 0.00 0.00 0.00 34 1008.6
20260508010519 17 342 4.8 12.9 0.00 0.00 0.00 33 1008.4
20260508010020 18 23 4.8 12.9 0.00 0.00 0.00 33 1008.3
20260508005520 18 26 6.4 14.5 0.00 0.00 0.00 33 1008.3
20260508005019 18 341 6.4 14.5 0.00 0.00 0.00 33 1008.2
20260508004517 18 336 8.0 16.1 0.00 0.00 0.00 33 1008.2
20260508004018 19 24 6.4 16.1 0.00 0.00 0.00 33 1008.2
20260508003016 20 335 6.4 12.9 0.00 0.00 0.00 31 1008.1
20260508002516 20 341 6.4 14.5 0.00 0.00 0.00 31 1008.0
20260508002015 20 346 6.4 14.5 0.00 0.00 0.00 30 1008.1
20260508001515 20 341 6.4 14.5 0.00 0.00 0.00 32 1008.1
20260508000515 21 329 8.0 19.3 0.00 0.00 0.00 30 1008.0
20260507235515 21 325 3.2 16.1 0.00 0.00 0.00 31 1008.0
20260507234513 22 286 4.8 12.9 0.00 0.00 0.00 29 1007.9
20260507234015 22 291 4.8 19.3 0.00 0.00 0.00 30 1008.0
20260507233513 22 234 6.4 19.3 0.00 0.00 0.00 30 1008.0
20260507233013 22 9 6.4 16.1 0.00 0.00 0.00 29 1008.0
20260507232513 22 298 6.4 17.7 0.00 0.00 0.00 29 1008.0
20260507232013 22 304 6.4 17.7 0.00 0.00 0.00 31 1007.9
20260507231512 22 273 8.0 16.1 0.00 0.00 0.00 28 1008.0
20260507231012 22 22 3.2 16.1 0.00 0.00 0.00 29 1008.1
20260507230511 22 350 8.0 19.3 0.00 0.00 0.00 30 1007.8
20260507225511 23 309 9.7 20.9 0.00 0.00 0.00 30 1007.9
20260507225011 23 342 9.7 19.3 0.00 0.00 0.00 28 1007.8
20260507224510 24 336 6.4 14.5 0.00 0.00 0.00 29 1007.9
20260507224012 24 20 6.4 20.9 0.00 0.00 0.00 28 1007.8
20260507223510 24 316 8.0 20.9 0.00 0.00 0.00 29 1007.9
20260507223009 24 330 8.0 17.7 0.00 0.00 0.00 28 1007.9
20260507222509 24 273 3.2 16.1 0.00 0.00 0.00 28 1008.0
20260507222009 23 300 4.8 17.7 0.00 0.00 0.00 31 1007.9
20260507221508 23 291 3.2 22.5 0.00 0.00 0.00 29 1007.9
20260507220508 24 314 8.0 17.7 0.00 0.00 0.00 28 1007.9
20260507220007 23 15 8.0 16.1 0.00 0.00 0.00 31 1007.9
20260507215007 23 259 9.7 20.9 0.00 0.00 0.00 28 1007.8
20260507214506 23 298 6.4 20.9 0.00 0.00 0.00 32 1007.9
20260507214007 24 247 8.0 20.9 0.00 0.00 0.00 28 1007.9
20260507213506 24 11 6.4 20.9 0.00 0.00 0.00 30 1008.0
20260507213006 24 330 6.4 20.9 0.00 0.00 0.00 31 1007.9
20260507212505 24 342 6.4 17.7 0.00 0.00 0.00 29 1008.1
20260507211505 24 271 8.0 32.2 0.00 0.00 0.00 31 1008.1
20260507211004 24 334 9.7 20.9 0.00 0.00 0.00 30 1008.2
20260507210504 24 329 4.8 19.3 0.00 0.00 0.00 29 1008.2
20260507210005 24 11 11.3 22.5 0.00 0.00 0.00 30 1008.3
20260507205503 25 321 9.7 22.5 0.00 0.00 0.00 30 1008.3
20260507205003 25 291 11.3 17.7 0.00 0.00 0.00 29 1008.4
20260507204004 24 351 6.4 17.7 0.00 0.00 0.00 32 1008.4
20260507203501 24 296 6.4 17.7 0.00 0.00 0.00 30 1008.5
20260507203001 24 9 6.4 22.5 0.00 0.00 0.00 32 1008.6
20260507202500 23 351 6.4 22.5 0.00 0.00 0.00 32 1008.6
20260507202001 23 9 4.8 17.7 0.00 0.00 0.00 32 1008.6
20260507201500 23 323 8.0 17.7 0.00 0.00 0.00 36 1008.6
20260507201000 23 23 4.8 17.7 0.00 0.00 0.00 34 1008.6
20260507200500 23 298 6.4 17.7 0.00 0.00 0.00 31 1008.7
20260507195959 23 11 6.4 17.7 0.00 0.00 0.00 30 1008.7
20260507195500 23 255 6.4 19.3 0.00 0.00 0.00 35 1008.7
20260507194458 22 252 6.4 22.5 0.00 0.00 0.00 36 1008.6
20260507193959 22 249 12.9 22.5 0.00 0.00 0.00 31 1008.8
20260507193459 23 250 14.5 20.9 0.00 0.00 0.00 31 1008.7
20260507192957 22 302 8.0 20.9 0.00 0.00 0.00 38 1008.7
20260507192457 22 279 9.7 19.3 0.00 0.00 0.00 41 1008.7
20260507191457 22 242 9.7 20.9 0.00 0.00 0.00 36 1008.8
20260507190956 22 240 6.4 25.7 0.00 0.00 0.00 37 1008.7
20260507190457 22 286 6.4 25.7 0.00 0.00 0.00 41 1008.9
20260507185955 22 309 11.3 20.9 0.00 0.00 0.00 38 1008.9
20260507185457 22 9 4.8 19.3 0.00 0.00 0.00 35 1008.8
20260507184455 21 223 9.7 22.5 0.00 0.00 0.00 37 1009.0
20260507183956 21 294 11.3 29.0 0.00 0.00 0.00 37 1008.9
20260507183455 21 257 11.3 29.0 0.00 0.00 0.00 40 1009.1
20260507182453 20 243 8.0 19.3 0.00 0.00 0.00 37 1009.1
20260507181953 21 254 11.3 19.3 0.00 0.00 0.00 35 1009.2
20260507181453 21 216 8.0 25.7 0.00 0.00 0.00 40 1009.3
20260507180952 21 261 8.0 25.7 0.00 0.00 0.00 39 1009.4